RYR3BW EIDW-EGSS

Flight info

Callsign RYR3BW
Flight time 0h 58m
Altitude 31000
Route ENDEQ1E ENDEQ Q36 NOSLO Z197 LISTO
Aircraft B738/M-SDE2E3FGHIRWXY/LB1

Departure

Time 2026-04-30 20:02
Airport Dublin Airport (EIDW)

Arrival

Time 2026-04-30 21:00
Airport London Stansted Airport (EGSS)
Time Latitude Longitude Altitude Speed Heading
2026-04-30 19:30 53.43010 -6.24943 210 ft 0 kts
2026-04-30 19:50 53.42995 -6.24945 214 ft 4 kts
2026-04-30 19:50 53.42971 -6.24949 210 ft 4 kts 354°
2026-04-30 19:50 53.42951 -6.24934 210 ft 4 kts 291°
2026-04-30 19:50 53.42947 -6.24899 210 ft 1 kts 276°
2026-04-30 19:51 53.42946 -6.24892 210 ft 0 kts 276°
2026-04-30 19:54 53.42946 -6.24893 210 ft 1 kts 276°
2026-04-30 19:55 53.42951 -6.24976 210 ft 5 kts 275°
2026-04-30 19:55 53.42954 -6.25036 215 ft 6 kts 275°
2026-04-30 19:55 53.42959 -6.25139 210 ft 14 kts 274°
2026-04-30 19:55 53.42950 -6.25278 215 ft 12 kts 249°
2026-04-30 19:56 53.42919 -6.25361 214 ft 12 kts 228°
2026-04-30 19:56 53.42861 -6.25462 213 ft 12 kts 225°
2026-04-30 19:56 53.42803 -6.25559 212 ft 12 kts 228°
2026-04-30 19:56 53.42740 -6.25667 210 ft 16 kts 225°
2026-04-30 19:57 53.42626 -6.25718 212 ft 22 kts 156°
2026-04-30 19:57 53.42479 -6.25792 214 ft 28 kts 229°
2026-04-30 19:57 53.42368 -6.25980 212 ft 20 kts 226°
2026-04-30 19:57 53.42281 -6.26154 212 ft 19 kts 248°
2026-04-30 19:58 53.42275 -6.26464 217 ft 47 kts 275°
2026-04-30 19:58 53.42288 -6.26678 210 ft 17 kts 277°
2026-04-30 19:58 53.42306 -6.27031 216 ft 25 kts 275°
2026-04-30 19:58 53.42318 -6.27244 210 ft 17 kts 275°
2026-04-30 19:59 53.42332 -6.27514 210 ft 24 kts 276°
2026-04-30 19:59 53.42348 -6.27793 217 ft 23 kts 274°
2026-04-30 19:59 53.42298 -6.28112 215 ft 0 kts 140°
2026-04-30 20:00 53.42296 -6.28110 210 ft 3 kts 140°
2026-04-30 20:00 53.42235 -6.27991 216 ft 18 kts 137°
2026-04-30 20:00 53.42180 -6.27864 210 ft 0 kts 97°
2026-04-30 20:01 53.42163 -6.27561 217 ft 63 kts 95°
2026-04-30 20:02 53.41995 -6.24517 574 ft 170 kts 95°
2026-04-30 20:02 53.41888 -6.22480 1309 ft 185 kts 101°
2026-04-30 20:03 53.41604 -6.17893 2017 ft 210 kts 99°
2026-04-30 20:03 53.41472 -6.15392 2111 ft 222 kts 99°
2026-04-30 20:03 53.41334 -6.12786 2338 ft 226 kts 99°
2026-04-30 20:03 53.41191 -6.10141 2751 ft 231 kts 99°
2026-04-30 20:04 53.41038 -6.07374 3286 ft 243 kts 99°
2026-04-30 20:04 53.40894 -6.04532 3996 ft 247 kts 96°
2026-04-30 20:04 53.41003 -6.01617 4723 ft 253 kts 88°
2026-04-30 20:05 53.41470 -5.95656 6053 ft 264 kts 88°
2026-04-30 20:05 53.41703 -5.92571 6732 ft 269 kts 88°
2026-04-30 20:05 53.42144 -5.86284 8164 ft 275 kts 89°
2026-04-30 20:06 53.42362 -5.83063 8839 ft 279 kts 89°
2026-04-30 20:06 53.42581 -5.79815 9081 ft 281 kts 89°
2026-04-30 20:06 53.42804 -5.76568 9113 ft 280 kts 89°
2026-04-30 20:06 53.43027 -5.73312 9125 ft 282 kts 89°
2026-04-30 20:07 53.43251 -5.70041 9128 ft 283 kts 89°
2026-04-30 20:07 53.43474 -5.66768 9131 ft 283 kts 89°
2026-04-30 20:07 53.43919 -5.60199 9127 ft 283 kts 89°
2026-04-30 20:08 53.44140 -5.56916 9125 ft 283 kts 89°
2026-04-30 20:08 53.44359 -5.53632 9123 ft 283 kts 89°
2026-04-30 20:08 53.44576 -5.50350 9122 ft 283 kts 90°
2026-04-30 20:08 53.44632 -5.47085 9124 ft 278 kts 97°
2026-04-30 20:09 53.44534 -5.43861 9132 ft 277 kts 99°
2026-04-30 20:09 53.44415 -5.40624 9125 ft 277 kts 99°
2026-04-30 20:09 53.44199 -5.34168 9125 ft 277 kts 98°
2026-04-30 20:10 53.44010 -5.27719 9123 ft 277 kts 98°
2026-04-30 20:10 53.43919 -5.24491 9122 ft 277 kts 98°
2026-04-30 20:10 53.43829 -5.21269 9123 ft 277 kts 98°
2026-04-30 20:11 53.43644 -5.14798 9067 ft 279 kts 94°
2026-04-30 20:11 53.43548 -5.11492 9181 ft 290 kts 96°
2026-04-30 20:11 53.43456 -5.08192 9400 ft 275 kts 96°
2026-04-30 20:12 53.43265 -5.01724 10083 ft 286 kts 98°
2026-04-30 20:12 53.43169 -4.98403 10838 ft 291 kts 98°
2026-04-30 20:12 53.43061 -4.94872 11009 ft 315 kts 98°
2026-04-30 20:13 53.42944 -4.91097 11407 ft 330 kts 98°
2026-04-30 20:13 53.42827 -4.87214 12050 ft 336 kts 98°
2026-04-30 20:13 53.42705 -4.83282 12796 ft 339 kts 98°
2026-04-30 20:13 53.42573 -4.79322 13568 ft 343 kts 98°
2026-04-30 20:14 53.42433 -4.75297 14276 ft 348 kts 99°
2026-04-30 20:14 53.42291 -4.71238 15005 ft 350 kts 99°
2026-04-30 20:14 53.42148 -4.67144 15749 ft 353 kts 99°
2026-04-30 20:14 53.42040 -4.63003 16459 ft 358 kts 96°
2026-04-30 20:15 53.41950 -4.58841 17241 ft 356 kts 101°
2026-04-30 20:15 53.41717 -4.54691 17981 ft 359 kts 101°
2026-04-30 20:15 53.41522 -4.50491 18634 ft 364 kts 100°
2026-04-30 20:15 53.41362 -4.46222 19222 ft 369 kts 99°
2026-04-30 20:16 53.41212 -4.41916 19820 ft 372 kts 99°
2026-04-30 20:16 53.41059 -4.37559 20417 ft 376 kts 99°
2026-04-30 20:16 53.40902 -4.33172 21006 ft 380 kts 99°
2026-04-30 20:16 53.40738 -4.28728 21578 ft 383 kts 99°
2026-04-30 20:17 53.40569 -4.24252 22146 ft 387 kts 99°
2026-04-30 20:17 53.40395 -4.19729 22714 ft 391 kts 99°
2026-04-30 20:17 53.40218 -4.15168 23254 ft 394 kts 99°
2026-04-30 20:17 53.40038 -4.10564 23774 ft 398 kts 99°
2026-04-30 20:18 53.39858 -4.05991 24310 ft 398 kts 99°
2026-04-30 20:18 53.39670 -4.01297 24779 ft 401 kts 99°
2026-04-30 20:18 53.39479 -3.96618 25192 ft 405 kts 99°
2026-04-30 20:18 53.39291 -3.91893 25642 ft 407 kts 99°
2026-04-30 20:19 53.39109 -3.87229 26234 ft 406 kts 98°
2026-04-30 20:19 53.38926 -3.82519 26873 ft 404 kts 98°
2026-04-30 20:19 53.38742 -3.77840 27436 ft 403 kts 98°
2026-04-30 20:19 53.38554 -3.73154 27964 ft 404 kts 98°
2026-04-30 20:20 53.38363 -3.68470 28499 ft 403 kts 98°
2026-04-30 20:20 53.38130 -3.63795 29073 ft 400 kts 102°
2026-04-30 20:20 53.37589 -3.59256 29606 ft 397 kts 107°
2026-04-30 20:20 53.36930 -3.54757 30041 ft 399 kts 107°
2026-04-30 20:21 53.36254 -3.50229 30447 ft 401 kts 107°
2026-04-30 20:21 53.35601 -3.45710 30933 ft 399 kts 107°
2026-04-30 20:21 53.34962 -3.41178 31147 ft 401 kts 107°
2026-04-30 20:22 53.33665 -3.32160 31148 ft 397 kts 108°
2026-04-30 20:22 53.32192 -3.23266 31170 ft 398 kts 109°
2026-04-30 20:23 53.30691 -3.14321 31169 ft 399 kts 109°
2026-04-30 20:23 53.29217 -3.05438 31150 ft 399 kts 109°
2026-04-30 20:24 53.27737 -2.96505 31172 ft 396 kts 109°
2026-04-30 20:24 53.26273 -2.87711 31179 ft 392 kts 110°
2026-04-30 20:25 53.24045 -2.74671 31189 ft 388 kts 110°
2026-04-30 20:26 53.21755 -2.61715 31206 ft 388 kts 110°
2026-04-30 20:26 53.19467 -2.48793 31199 ft 388 kts 111°
2026-04-30 20:27 53.16405 -2.31613 31202 ft 385 kts 111°
2026-04-30 20:28 53.11651 -2.16477 31212 ft 367 kts 144°
2026-04-30 20:30 53.01252 -2.03985 31206 ft 371 kts 146°
2026-04-30 20:31 52.88961 -1.89129 30636 ft 348 kts 146°
2026-04-30 20:32 52.83153 -1.82137 29599 ft 339 kts 146°
2026-04-30 20:32 52.79379 -1.77603 28891 ft 332 kts 146°
2026-04-30 20:33 52.77515 -1.75369 28552 ft 329 kts 146°
2026-04-30 20:33 52.73811 -1.71057 27863 ft 322 kts 150°
2026-04-30 20:33 52.71858 -1.69279 27450 ft 319 kts 154°
2026-04-30 20:34 52.67924 -1.66002 26783 ft 314 kts 154°
2026-04-30 20:34 52.64051 -1.62764 26106 ft 310 kts 154°
2026-04-30 20:35 52.62141 -1.61148 25776 ft 308 kts 154°
2026-04-30 20:35 52.60244 -1.59535 25461 ft 306 kts 154°
2026-04-30 20:35 52.56487 -1.56331 24821 ft 302 kts 153°
2026-04-30 20:36 52.54623 -1.54739 24504 ft 301 kts 153°
2026-04-30 20:36 52.52772 -1.53159 24196 ft 299 kts 153°
2026-04-30 20:36 52.49087 -1.50017 23638 ft 297 kts 153°
2026-04-30 20:37 52.47256 -1.48457 23251 ft 296 kts 153°
2026-04-30 20:37 52.45437 -1.46909 22947 ft 293 kts 153°
2026-04-30 20:37 52.43630 -1.45373 22625 ft 291 kts 153°
2026-04-30 20:37 52.41838 -1.43851 22317 ft 289 kts 153°
2026-04-30 20:38 52.40055 -1.42336 22005 ft 289 kts 153°
2026-04-30 20:38 52.38270 -1.40823 21718 ft 289 kts 153°
2026-04-30 20:38 52.36471 -1.39298 21404 ft 294 kts 153°
2026-04-30 20:39 52.32740 -1.36141 20765 ft 306 kts 153°
2026-04-30 20:39 52.30850 -1.34545 20439 ft 305 kts 153°
2026-04-30 20:39 52.28978 -1.32948 20099 ft 303 kts 152°
2026-04-30 20:40 52.25374 -1.29566 19539 ft 299 kts 150°
2026-04-30 20:40 52.23581 -1.27852 19233 ft 298 kts 150°
2026-04-30 20:40 52.21766 -1.26124 18928 ft 298 kts 150°
2026-04-30 20:41 52.18179 -1.22728 18310 ft 298 kts 150°
2026-04-30 20:41 52.16387 -1.21040 17990 ft 298 kts 150°
2026-04-30 20:41 52.15200 -1.19923 17774 ft 297 kts 150°
2026-04-30 20:41 52.12852 -1.17718 17369 ft 295 kts 150°
2026-04-30 20:42 52.11074 -1.16051 17073 ft 294 kts 150°
2026-04-30 20:42 52.09304 -1.14393 16774 ft 293 kts 150°
2026-04-30 20:42 52.05795 -1.11109 16189 ft 290 kts 150°
2026-04-30 20:43 52.04614 -1.10007 15991 ft 289 kts 150°
2026-04-30 20:43 52.02881 -1.08390 15690 ft 286 kts 150°
2026-04-30 20:43 52.01240 -1.06597 15375 ft 286 kts 136°
2026-04-30 20:44 51.99627 -1.00857 14957 ft 289 kts 99°
2026-04-30 20:44 51.99563 -0.97542 14773 ft 290 kts 94°
2026-04-30 20:44 51.99601 -0.91033 14397 ft 290 kts 93°
2026-04-30 20:45 51.99635 -0.84486 14025 ft 290 kts 94°
2026-04-30 20:45 51.99643 -0.81210 13814 ft 291 kts 94°
2026-04-30 20:45 51.99646 -0.77927 13615 ft 291 kts 94°
2026-04-30 20:46 51.99641 -0.68098 13021 ft 290 kts 94°
2026-04-30 20:46 51.99636 -0.64831 12845 ft 289 kts 94°
2026-04-30 20:47 51.99623 -0.58310 12465 ft 289 kts 94°
2026-04-30 20:47 51.99614 -0.55053 12281 ft 289 kts 94°
2026-04-30 20:48 51.99596 -0.48545 11905 ft 288 kts 94°
2026-04-30 20:48 51.99585 -0.45297 11707 ft 288 kts 94°
2026-04-30 20:48 51.99573 -0.42049 11529 ft 287 kts 94°
2026-04-30 20:48 51.99559 -0.38825 11240 ft 284 kts 94°
2026-04-30 20:49 51.99529 -0.35646 10874 ft 278 kts 95°
2026-04-30 20:49 51.99492 -0.32538 10503 ft 273 kts 95°
2026-04-30 20:49 51.99455 -0.29479 10147 ft 269 kts 95°
2026-04-30 20:50 51.99380 -0.23514 9362 ft 261 kts 95°
2026-04-30 20:50 51.99343 -0.20593 8975 ft 258 kts 95°
2026-04-30 20:50 51.99306 -0.17700 8592 ft 255 kts 95°
2026-04-30 20:50 51.99269 -0.14880 8207 ft 252 kts 95°
2026-04-30 20:51 51.99231 -0.12024 7741 ft 254 kts 94°
2026-04-30 20:51 51.99127 -0.06298 6820 ft 249 kts 101°
2026-04-30 20:51 51.98495 -0.03821 6403 ft 240 kts 132°
2026-04-30 20:52 51.97167 -0.02215 6232 ft 238 kts 153°
2026-04-30 20:52 51.95679 -0.01044 5728 ft 237 kts 155°
2026-04-30 20:52 51.92749 0.01177 4740 ft 229 kts 156°
2026-04-30 20:53 51.91320 0.02255 4241 ft 224 kts 155°
2026-04-30 20:53 51.89906 0.03273 3737 ft 220 kts 161°
2026-04-30 20:53 51.88417 0.03230 3365 ft 217 kts 198°
2026-04-30 20:54 51.85802 0.01325 2897 ft 202 kts 194°
2026-04-30 20:54 51.84467 0.00619 2649 ft 201 kts 191°
2026-04-30 20:54 51.83117 -0.00022 2552 ft 204 kts 189°
2026-04-30 20:55 51.80409 -0.01219 2503 ft 199 kts 189°
2026-04-30 20:55 51.79086 -0.01246 2480 ft 184 kts 154°
2026-04-30 20:55 51.78156 0.00015 2509 ft 174 kts 129°
2026-04-30 20:56 51.77418 0.03656 2481 ft 173 kts 101°
2026-04-30 20:56 51.77314 0.05552 2471 ft 170 kts 94°
2026-04-30 20:56 51.78686 0.08642 2488 ft 176 kts 53°
2026-04-30 20:57 51.79559 0.10004 2499 ft 178 kts 52°
2026-04-30 20:57 51.80471 0.11390 2314 ft 180 kts 51°
2026-04-30 20:57 51.81373 0.12746 2096 ft 175 kts 53°
2026-04-30 20:58 51.83104 0.15355 1639 ft 167 kts 52°
2026-04-30 20:58 51.83950 0.16633 1407 ft 166 kts 51°
2026-04-30 20:58 51.84768 0.17863 1191 ft 154 kts 49°
2026-04-30 20:58 51.85524 0.19005 981 ft 148 kts 47°
2026-04-30 20:59 51.87011 0.21238 545 ft 142 kts 44°
2026-04-30 20:59 51.87712 0.22298 373 ft 137 kts 43°
2026-04-30 21:00 51.88781 0.23908 341 ft 50 kts 52°
2026-04-30 21:00 51.88907 0.24364 355 ft 5 kts 70°
2026-04-30 21:01 51.88919 0.24425 353 ft 0 kts 75°
2026-04-30 21:02 51.88912 0.24494 357 ft 9 kts 113°
2026-04-30 21:02 51.88932 0.24611 351 ft 12 kts 43°
2026-04-30 21:03 51.88994 0.24706 351 ft 12 kts 44°
2026-04-30 21:03 51.89043 0.24781 354 ft 6 kts 41°
2026-04-30 21:03 51.89074 0.24826 351 ft 6 kts 43°
2026-04-30 21:03 51.89106 0.24874 355 ft 6 kts 43°
2026-04-30 21:04 51.89141 0.24926 351 ft 8 kts 42°
2026-04-30 21:04 51.89196 0.25009 351 ft 15 kts 46°
2026-04-30 21:04 51.89347 0.25303 358 ft 20 kts 43°
2026-04-30 21:05 51.89415 0.25480 351 ft 19 kts 111°
2026-04-30 21:05 51.89359 0.25631 357 ft 12 kts 128°